This demonstration page uses our WeatherBlox Daily Observations layout. Learn more.

Left ArrowRight Arrow

Hourly Observations for October 19, 2016

Temp ( °F °C ) Dew Point ( °F °C ) Humidity (%) Winds ( mph kmh ) Pressure ( in mb ) Visibility ( mi km ) Precip ( " mm )
12:16 am 00:16 Mostly Cloudy 68 20 66 19 94 94 NW 5 7 29.94 1014 10 16.0934 N/A
12:37 am 00:37 Partly Cloudy 68 20 66 19 94 94 WNW 5 7 29.94 1014 10 16.0934 N/A
12:57 am 00:57 Partly Cloudy 66 19 66 19 100 100 N 7 11 29.94 1014 7 11.26538 N/A
1:16 am 01:16 Mostly Cloudy 66 19 63 17 88 88 NNE 9 15 29.94 1014 10 16.0934 N/A
1:37 am 01:37 Partly Cloudy 64 18 61 16 88 88 NNE 7 11 29.97 1015 10 16.0934 N/A
1:57 am 01:57 Mostly Cloudy 64 18 61 16 88 88 N 5 7 29.97 1015 10 16.0934 N/A
2:16 am 02:16 Partly Cloudy 63 17 61 16 94 94 NNE 5 7 29.97 1015 10 16.0934 N/A
2:37 am 02:37 Partly Cloudy 61 16 59 15 94 94 N 6 9 30 1016 10 16.0934 N/A
2:57 am 02:57 Partly Cloudy 61 16 59 15 94 94 N 6 9 30 1016 10 16.0934 N/A
3:16 am 03:16 Partly Cloudy 61 16 57 14 88 88 NNE 3 6 30 1016 10 16.0934 N/A
3:37 am 03:37 Clear 61 16 57 14 88 88 N 3 6 30 1016 10 16.0934 N/A
3:56 am 03:56 Clear 59 15 55 13 88 88 N 5 7 30 1016 10 16.0934 N/A
4:16 am 04:16 Clear 57 14 55 13 94 94 N N/A 30 1016 10 16.0934 N/A
4:37 am 04:37 Clear 57 14 55 13 94 94 N 3 6 30 1016 10 16.0934 N/A
4:57 am 04:57 Clear 57 14 55 13 94 94 N 5 7 30.03 1017 10 16.0934 N/A
5:16 am 05:16 Clear 55 13 54 12 94 94 N N/A 30.03 1017 10 16.0934 N/A
5:37 am 05:37 Clear 55 13 54 12 94 94 N N/A 30.03 1017 10 16.0934 N/A
5:57 am 05:57 Clear 57 14 54 12 88 88 NNE 5 7 30.03 1017 10 16.0934 N/A
6:16 am 06:16 Clear 55 13 54 12 94 94 NNE 3 6 30.03 1017 10 16.0934 N/A
6:37 am 06:37 Clear 52 11 52 11 100 100 N N/A 30.06 1018 10 16.0934 N/A
6:57 am 06:57 Clear 54 12 54 12 100 100 N N/A 30.03 1017 10 16.0934 N/A
7:16 am 07:16 Clear 55 13 52 11 88 88 NNE 5 7 30.03 1017 10 16.0934 N/A
7:37 am 07:37 Clear 54 12 52 11 94 94 N N/A 30.09 1019 10 16.0934 N/A
7:56 am 07:56 Clear 52 11 50 10 94 94 N N/A 30.09 1019 10 16.0934 N/A
8:16 am 08:16 Sunny 54 12 52 11 94 94 N N/A 30.09 1019 10 16.0934 N/A
8:37 am 08:37 Sunny 54 12 52 11 94 94 N N/A 30.09 1019 10 16.0934 N/A
8:56 am 08:56 Sunny 55 13 54 12 94 94 N N/A 30.06 1018 10 16.0934 N/A
9:16 am 09:16 Sunny 59 15 54 12 82 82 N N/A 30.09 1019 10 16.0934 N/A
9:37 am 09:37 Sunny 61 16 54 12 77 77 ESE 6 9 30.09 1019 10 16.0934 N/A
9:56 am 09:56 Sunny 63 17 55 13 77 77 E 6 9 30.09 1019 10 16.0934 N/A
10:16 am 10:16 Sunny 64 18 54 12 68 68 E 6 9 30.09 1019 10 16.0934 N/A
10:37 am 10:37 Sunny 66 19 54 12 64 64 E 5 7 30.09 1019 10 16.0934 N/A
10:56 am 10:56 Sunny 68 20 54 12 60 60 ESE 8 13 30.09 1019 10 16.0934 N/A
11:17 am 11:17 Sunny 70 21 54 12 57 57 E 6 9 30.09 1019 10 16.0934 N/A
11:37 am 11:37 Sunny 70 21 50 10 50 50 E 7 11 30.09 1019 10 16.0934 N/A
11:56 am 11:56 Partly Cloudy 70 21 52 11 53 53 ENE 3 6 30.09 1019 10 16.0934 N/A
12:17 pm 12:17 Mostly Cloudy 73 23 52 11 47 47 E 9 15 30.06 1018 10 16.0934 N/A
12:37 pm 12:37 Mostly Cloudy 73 23 52 11 47 47 ENE 6 9 30.06 1018 10 16.0934 N/A
12:56 pm 12:56 Mostly Cloudy 73 23 52 11 47 47 E 6 9 30.06 1018 10 16.0934 N/A
1:17 pm 13:17 Mostly Cloudy 75 24 54 12 47 47 NE 3 6 30.06 1018 10 16.0934 N/A
1:37 pm 13:37 Mostly Cloudy 75 24 54 12 47 47 ENE 5 7 30.03 1017 10 16.0934 N/A
1:56 pm 13:56 Mostly Cloudy 75 24 54 12 47 47 NE 6 9 30.03 1017 10 16.0934 N/A
2:17 pm 14:17 Mostly Cloudy 73 23 54 12 50 50 NNE 6 9 30.03 1017 10 16.0934 N/A
2:36 pm 14:36 Cloudy 73 23 54 12 50 50 NNE 6 9 30.03 1017 10 16.0934 N/A
2:57 pm 14:57 Mostly Cloudy 73 23 54 12 50 50 NE 7 11 30.03 1017 10 16.0934 N/A
3:17 pm 15:17 Mostly Cloudy 73 23 54 12 50 50 NE 12 19 30 1016 10 16.0934 N/A
3:36 pm 15:36 Mostly Cloudy 73 23 54 12 50 50 NE 10 17 30 1016 7 11.26538 N/A
3:57 pm 15:57 Partly Cloudy 73 23 54 12 50 50 ENE 12 19 30 1016 10 16.0934 N/A
4:17 pm 16:17 Sunny 72 22 54 12 53 53 NE 10 17 29.97 1015 10 16.0934 N/A
4:36 pm 16:36 Partly Cloudy 70 21 54 12 57 57 NE 9 15 30 1016 7 11.26538 N/A
4:57 pm 16:57 Partly Cloudy 70 21 54 12 57 57 NE 12 19 29.97 1015 10 16.0934 N/A
5:16 pm 17:16 Sunny 68 20 54 12 60 60 ENE 7 11 30 1016 10 16.0934 N/A
5:36 pm 17:36 Partly Cloudy 68 20 54 12 60 60 ENE 9 15 30 1016 10 16.0934 N/A
5:57 pm 17:57 Mostly Cloudy 66 19 54 12 64 64 NE 10 17 30 1016 10 16.0934 N/A
6:17 pm 18:17 Cloudy 64 18 55 13 73 73 N 15 24 30 1016 10 16.0934 N/A
6:36 pm 18:36 Cloudy 61 16 55 13 83 83 N 14 22 30.06 1018 2.5 4.02335 N/A
6:57 pm 18:57 Cloudy 59 15 55 13 88 88 N 22 35 30.06 1018 7 11.26538 N/A
7:17 pm 19:17 Cloudy 59 15 55 13 88 88 NE 18 30 30.03 1017 4 6.43736 N/A
7:36 pm 19:36 Cloudy 61 16 59 15 94 94 ESE 14 22 30.03 1017 0.5 0.80467 N/A
7:57 pm 19:57 Cloudy 61 16 59 15 94 94 NNE 9 15 30.03 1017 10 16.0934 N/A
8:17 pm 20:17 Mostly Cloudy 57 14 57 14 100 100 NNE 16 26 30.03 1017 10 16.0934 N/A
8:36 pm 20:36 Mostly Cloudy 57 14 55 13 94 94 NE 9 15 30.03 1017 10 16.0934 N/A
8:57 pm 20:57 Mostly Cloudy 57 14 55 13 94 94 ENE 8 13 30.03 1017 10 16.0934 N/A
9:16 pm 21:16 Cloudy 57 14 55 13 94 94 ENE 10 17 30.03 1017 10 16.0934 N/A
9:37 pm 21:37 Cloudy 59 15 55 13 88 88 ENE 8 13 30.03 1017 10 16.0934 N/A
9:57 pm 21:57 Cloudy 59 15 55 13 88 88 E 10 17 30 1016 10 16.0934 N/A
10:16 pm 22:16 Cloudy 59 15 55 13 88 88 E 9 15 30 1016 10 16.0934 N/A
10:37 pm 22:37 Cloudy 59 15 55 13 88 88 N 10 17 30.03 1017 10 16.0934 N/A
10:57 pm 22:57 Cloudy 57 14 55 13 94 94 NNE 10 17 30 1016 10 16.0934 N/A
11:16 pm 23:16 Cloudy 57 14 55 13 94 94 NNE 13 20 30.03 1017 10 16.0934 N/A
11:37 pm 23:37 Cloudy 57 14 55 13 94 94 NE 8 13 30.03 1017 10 16.0934 N/A
11:57 pm 23:57 Cloudy 57 14 55 13 94 94 NNE 9 15 30 1016 10 16.0934 N/A

Powered by AerisWeather